Castlebar Airport

Jump to: basic info | weather | comments

Related pages: nearby airports | nearby navaids | notams | map

Basic information (top)

Codes: CLB EICB
Location: lon 53.848400, lat -9.280370
Status: small_airport

Weather (top)

Current conditions for Ireland West Knock Airport 17nm (31km) ENE (rec'd 2014/09/19 17:30Z):

EIKN 191730Z 34007KT 6000 OVC003 14/14 Q1015 TEMPO 3000 OVC004

Airport forecast for Ireland West Knock Airport 17nm (31km) ENE (rec'd 2014/09/19 12:24Z):

TAF EIKN 191100Z 1912/2012 01005KT 3000 BR SCT008 BKN015 
      BECMG 1912/1914 8000 
      TEMPO 1919/2002 4000 BR BKN005

Latest comments (top)

No longer exists.: This airport was closed in 2001 and the ... [read]

fv: fg [read]

More... (top)

See also NOTAMs and nearby airports and navaids, or visit the Castlebar Airport page at the main OurAirports website..